SL-6 R/B(2)

Satellite information

Favourite Embed

Satellite Type and Status

ROCKET BODYIN ORBIT

Key statistics

Satellite SL-6 R/B(2) at a glance.

Uptime

14707

Days in orbit

Revolutions

≈ 2.0

Per day

Orbit

HEO

HEO

Inclination

62.7

Latest

Satellite identification and parameters

Extended collection of information and parameters for SL-6 R/B(2).

Object identification

Identified? True

Debris? False

Object name: SL-6 R/B(2)

International designator: 1985-040D

Object number (NORAD): 15741

Object ID (CCSDS): 15741

Country: COMMONWEALTH OF INDEPENDENT STATES (CIS)

Current information (Y/N): Y

RCS size: LARGE

Orbital parameters

Period: 731.39 minutes

Inclination: 62.7263 deg

SMA: 26890.125 km

Apoapsis: 40629.324 km

Periapsis: 394.656 km

RAAN: 335.0244 deg

Eccentricy: 0.74813091

Argument of periapsis: 254.1517 deg

Mean anomaly: 19.0839 deg

Mean motion: 1.96885405 rev/day

Mean motion (dot): 0.00001323 rev/day2

B* drag term: 0.00068298841 1/REarth

Two-line elements (TLE)

Creation date: Sept. 1, 2025, 2:20 a.m.

Reference frame: TEME

Reference center: EARTH

Epoch: Aug. 31, 2025, 7:19 a.m. UTC

TLE line 0: 0 SL-6 R/B(2)

TLE line 1: 1 15741U 85040D 25243.30533698 .00001323 00000-0 68299-3 0 9994

TLE line 2: 2 15741 62.7263 335.0244 7481309 254.1517 19.0839 1.96885405289290

Live tracking on map

Real-time ground track for satellite SL-6 R/B(2).

In-orbit conjunctions

There are no conjunctions computed for SL-6 R/B(2), at the moment. Check back to stay up to date, as we update our databases every day.

Go to all conjunctions

Associated space launch

Molniya communication satellites operating from a highly elliptical orbit

SL-6 R/B(2) was lifted into orbit during the mission ‘Molniya-M | Molniya-3 39L’, on board a Molniya-M space rocket.

The launch took place on May 29, 1985, 7:40 a.m. from 43/4 (43R).

For more information about the launch, click the button.

Launch to space Molniya-M | Molniya-3 39L
Molniya-M | Molniya-3 39L

Agency: N/A

Status: Launch Successful

Launch date: May 29, 1985, 7:40 a.m. UTC

Rocket: Molniya-M

Launch pad: 43/4 (43R)

Location: Plesetsk Cosmodrome, Russian Federation

...

Latest news about this satellite

There are no fresh news available about this satellite. Check back as we update our databases every day.


Newsletter sign-up

Weekly statistics, charts and insights to help you stay on top of the space industry.